Time,TemperatureF,DewpointF,PressureIn,WindDirection,WindDirectionDegrees,WindSpeedMPH,WindSpeedGustMPH,Humidity,HourlyPrecipIn,Conditions,Clouds,dailyrainin,SolarRadiationWatts/m^2,SoftwareType,DateUTC
2013-06-13 00:01:00,74.0,42.0,-100.00,SW,224,6.0,16.0,32,0.00,,,0.00,0.000000,,2013-06-13 07:01:00,
2013-06-13 00:11:00,74.0,42.0,-100.00,SW,224,6.0,16.0,32,0.00,,,0.00,0.000000,,2013-06-13 07:11:00,
2013-06-13 00:42:00,73.0,41.0,-100.00,SW,223,5.0,12.0,31,0.00,,,0.00,0.000000,,2013-06-13 07:42:00,
2013-06-13 00:52:00,73.0,41.0,-100.00,SW,223,5.0,12.0,31,0.00,,,0.00,0.000000,,2013-06-13 07:52:00,
2013-06-13 01:01:00,73.0,41.0,-100.00,SW,223,5.0,12.0,31,0.00,,,0.00,0.000000,,2013-06-13 08:01:00,
2013-06-13 01:11:00,73.0,41.0,-100.00,SW,223,5.0,12.0,31,0.00,,,0.00,0.000000,,2013-06-13 08:11:00,
2013-06-13 01:43:00,72.0,43.0,-100.00,SSW,212,5.0,14.0,35,0.00,,,0.00,0.000000,,2013-06-13 08:43:00,
2013-06-13 01:52:00,72.0,43.0,-100.00,SSW,212,5.0,14.0,35,0.00,,,0.00,0.000000,,2013-06-13 08:52:00,
2013-06-13 02:01:00,72.0,43.0,-100.00,SSW,212,5.0,14.0,35,0.00,,,0.00,0.000000,,2013-06-13 09:01:00,
2013-06-13 02:11:00,72.0,43.0,-100.00,SSW,212,5.0,14.0,35,0.00,,,0.00,0.000000,,2013-06-13 09:11:00,
2013-06-13 02:42:00,71.0,42.0,-100.00,SW,230,7.0,12.0,35,0.00,,,0.00,0.000000,,2013-06-13 09:42:00,
2013-06-13 02:52:00,71.0,42.0,-100.00,SW,230,7.0,12.0,35,0.00,,,0.00,0.000000,,2013-06-13 09:52:00,
2013-06-13 03:01:00,71.0,42.0,-100.00,SW,230,7.0,12.0,35,0.00,,,0.00,0.000000,,2013-06-13 10:01:00,
2013-06-13 03:11:00,71.0,42.0,-100.00,SW,230,7.0,12.0,35,0.00,,,0.00,0.000000,,2013-06-13 10:11:00,
2013-06-13 03:43:00,71.0,38.0,-100.00,SW,221,10.0,18.0,30,0.00,,,0.00,0.000000,,2013-06-13 10:43:00,
2013-06-13 03:53:00,71.0,38.0,-100.00,SW,221,10.0,18.0,30,0.00,,,0.00,0.000000,,2013-06-13 10:53:00,
2013-06-13 04:01:00,71.0,38.0,-100.00,SW,221,10.0,18.0,30,0.00,,,0.00,0.000000,,2013-06-13 11:01:00,
2013-06-13 04:11:00,71.0,38.0,-100.00,SW,221,10.0,18.0,30,0.00,,,0.00,0.000000,,2013-06-13 11:11:00,
2013-06-13 04:42:00,71.0,29.0,-100.00,SW,233,8.0,19.0,21,0.00,,,0.00,0.000000,,2013-06-13 11:42:00,
2013-06-13 05:01:00,71.0,29.0,-100.00,SW,233,8.0,19.0,21,0.00,,,0.00,0.000000,,2013-06-13 12:01:00,
2013-06-13 05:11:00,71.0,29.0,-100.00,SW,233,8.0,19.0,21,0.00,,,0.00,0.000000,,2013-06-13 12:11:00,
2013-06-13 06:01:00,69.0,26.0,-100.00,SSW,209,10.0,19.0,20,0.00,,,0.00,0.000000,,2013-06-13 13:01:00,
2013-06-13 06:11:00,69.0,26.0,-100.00,SSW,209,10.0,19.0,20,0.00,,,0.00,0.000000,,2013-06-13 13:11:00,
2013-06-13 06:43:00,69.0,27.0,-100.00,SW,221,11.0,19.0,21,0.00,,,0.00,9.000000,,2013-06-13 13:43:00,
2013-06-13 06:53:00,69.0,27.0,-100.00,SW,221,11.0,19.0,21,0.00,,,0.00,9.000000,,2013-06-13 13:53:00,
2013-06-13 07:02:00,69.0,27.0,-100.00,SW,221,11.0,19.0,21,0.00,,,0.00,9.000000,,2013-06-13 14:02:00,
2013-06-13 07:11:00,69.0,27.0,-100.00,SW,221,11.0,19.0,21,0.00,,,0.00,9.000000,,2013-06-13 14:11:00,
2013-06-13 07:43:00,71.0,28.0,-100.00,SW,221,9.0,23.0,20,0.00,,,0.00,164.000000,,2013-06-13 14:43:00,
2013-06-13 07:53:00,71.0,28.0,-100.00,SW,221,9.0,23.0,20,0.00,,,0.00,164.000000,,2013-06-13 14:53:00,
2013-06-13 08:01:00,71.0,28.0,-100.00,SW,221,9.0,23.0,20,0.00,,,0.00,164.000000,,2013-06-13 15:01:00,
2013-06-13 08:11:00,71.0,28.0,-100.00,SW,221,9.0,23.0,20,0.00,,,0.00,164.000000,,2013-06-13 15:11:00,
2013-06-13 08:43:00,74.0,28.0,-100.00,SSW,206,12.0,19.0,18,0.00,,,0.00,403.000000,,2013-06-13 15:43:00,
2013-06-13 08:53:00,74.0,28.0,-100.00,SSW,206,12.0,19.0,18,0.00,,,0.00,403.000000,,2013-06-13 15:53:00,
2013-06-13 09:01:00,74.0,28.0,-100.00,SSW,206,12.0,19.0,18,0.00,,,0.00,403.000000,,2013-06-13 16:01:00,
2013-06-13 09:11:00,74.0,28.0,-100.00,SSW,206,12.0,19.0,18,0.00,,,0.00,403.000000,,2013-06-13 16:11:00,
2013-06-13 09:43:00,75.0,27.0,-100.00,SSW,208,8.0,22.0,17,0.00,,,0.00,605.000000,,2013-06-13 16:43:00,
2013-06-13 09:53:00,75.0,27.0,-100.00,SSW,208,8.0,22.0,17,0.00,,,0.00,605.000000,,2013-06-13 16:53:00,
2013-06-13 10:02:00,75.0,27.0,-100.00,SSW,208,8.0,22.0,17,0.00,,,0.00,605.000000,,2013-06-13 17:02:00,
2013-06-13 10:11:00,75.0,27.0,-100.00,SSW,208,8.0,22.0,17,0.00,,,0.00,605.000000,,2013-06-13 17:11:00,
2013-06-13 10:43:00,76.0,28.0,-100.00,SSW,208,10.0,25.0,17,0.00,,,0.00,777.000000,,2013-06-13 17:43:00,
2013-06-13 10:53:00,76.0,28.0,-100.00,SSW,208,10.0,25.0,17,0.00,,,0.00,777.000000,,2013-06-13 17:53:00,
2013-06-13 11:02:00,76.0,28.0,-100.00,SSW,208,10.0,25.0,17,0.00,,,0.00,777.000000,,2013-06-13 18:02:00,
2013-06-13 11:11:00,76.0,28.0,-100.00,SSW,208,10.0,25.0,17,0.00,,,0.00,777.000000,,2013-06-13 18:11:00,
2013-06-13 11:43:00,77.0,32.0,-100.00,WSW,238,7.0,27.0,19,0.00,,,0.00,911.000000,,2013-06-13 18:43:00,
2013-06-13 11:52:00,77.0,32.0,-100.00,WSW,238,7.0,27.0,19,0.00,,,0.00,911.000000,,2013-06-13 18:52:00,
2013-06-13 12:01:00,77.0,32.0,-100.00,WSW,238,7.0,27.0,19,0.00,,,0.00,911.000000,,2013-06-13 19:01:00,
2013-06-13 12:11:00,77.0,32.0,-100.00,WSW,238,7.0,27.0,19,0.00,,,0.00,911.000000,,2013-06-13 19:11:00,
2013-06-13 12:43:00,79.0,32.0,-100.00,South,183,14.0,35.0,18,0.00,,,0.00,1002.000000,,2013-06-13 19:43:00,
2013-06-13 12:53:00,79.0,32.0,-100.00,South,183,14.0,35.0,18,0.00,,,0.00,1002.000000,,2013-06-13 19:53:00,
2013-06-13 13:01:00,79.0,32.0,-100.00,South,183,14.0,35.0,18,0.00,,,0.00,1002.000000,,2013-06-13 20:01:00,
2013-06-13 13:11:00,79.0,32.0,-100.00,South,183,14.0,35.0,18,0.00,,,0.00,1002.000000,,2013-06-13 20:11:00,
2013-06-13 13:44:00,80.0,27.0,-100.00,South,176,16.0,34.0,14,0.00,,,0.00,1031.000000,,2013-06-13 20:44:00,
2013-06-13 13:53:00,80.0,27.0,-100.00,South,176,16.0,34.0,14,0.00,,,0.00,1031.000000,,2013-06-13 20:53:00,
2013-06-13 14:01:00,80.0,27.0,-100.00,South,176,16.0,34.0,14,0.00,,,0.00,1031.000000,,2013-06-13 21:01:00,
2013-06-13 14:11:00,80.0,27.0,-100.00,South,176,16.0,34.0,14,0.00,,,0.00,1031.000000,,2013-06-13 21:11:00,
2013-06-13 14:43:00,81.0,27.0,-100.00,SW,228,11.0,30.0,14,0.00,,,0.00,1020.000000,,2013-06-13 21:43:00,
2013-06-13 14:52:00,81.0,27.0,-100.00,SW,228,11.0,30.0,14,0.00,,,0.00,1020.000000,,2013-06-13 21:52:00,
2013-06-13 15:01:00,81.0,27.0,-100.00,SW,228,11.0,30.0,14,0.00,,,0.00,1020.000000,,2013-06-13 22:01:00,
2013-06-13 15:11:00,81.0,27.0,-100.00,SW,228,11.0,30.0,14,0.00,,,0.00,1020.000000,,2013-06-13 22:11:00,
2013-06-13 15:43:00,81.0,27.0,-100.00,SW,231,17.0,33.0,14,0.00,,,0.00,944.000000,,2013-06-13 22:43:00,
2013-06-13 15:52:00,81.0,27.0,-100.00,SW,231,17.0,33.0,14,0.00,,,0.00,944.000000,,2013-06-13 22:52:00,
2013-06-13 16:01:00,81.0,27.0,-100.00,SW,231,17.0,33.0,14,0.00,,,0.00,944.000000,,2013-06-13 23:01:00,
2013-06-13 16:11:00,81.0,27.0,-100.00,SW,231,17.0,33.0,14,0.00,,,0.00,944.000000,,2013-06-13 23:11:00,
2013-06-13 16:43:00,81.0,27.0,-100.00,SW,229,13.0,36.0,14,0.00,,,0.00,805.000000,,2013-06-13 23:43:00,
2013-06-13 16:52:00,81.0,27.0,-100.00,SW,229,13.0,36.0,14,0.00,,,0.00,805.000000,,2013-06-13 23:52:00,
2013-06-13 17:01:00,81.0,27.0,-100.00,SW,229,13.0,36.0,14,0.00,,,0.00,805.000000,,2013-06-14 00:01:00,
2013-06-13 17:11:00,81.0,27.0,-100.00,SW,229,13.0,36.0,14,0.00,,,0.00,805.000000,,2013-06-14 00:11:00,
2013-06-13 17:43:00,80.0,27.0,-100.00,SSW,203,13.0,30.0,14,0.00,,,0.00,632.000000,,2013-06-14 00:43:00,
2013-06-13 17:53:00,80.0,27.0,-100.00,SSW,203,13.0,30.0,14,0.00,,,0.00,632.000000,,2013-06-14 00:53:00,
2013-06-13 18:01:00,80.0,27.0,-100.00,SSW,203,13.0,30.0,14,0.00,,,0.00,632.000000,,2013-06-14 01:01:00,
2013-06-13 18:11:00,80.0,27.0,-100.00,SSW,203,13.0,30.0,14,0.00,,,0.00,632.000000,,2013-06-14 01:11:00,
2013-06-13 18:43:00,78.0,27.0,-100.00,South,191,9.0,31.0,15,0.00,,,0.00,425.000000,,2013-06-14 01:43:00,
2013-06-13 18:52:00,78.0,27.0,-100.00,South,191,9.0,31.0,15,0.00,,,0.00,425.000000,,2013-06-14 01:52:00,
2013-06-13 19:02:00,78.0,27.0,-100.00,South,191,9.0,31.0,15,0.00,,,0.00,425.000000,,2013-06-14 02:02:00,
2013-06-13 19:11:00,78.0,27.0,-100.00,South,191,9.0,31.0,15,0.00,,,0.00,425.000000,,2013-06-14 02:11:00,
2013-06-13 20:43:00,71.0,29.0,-100.00,SW,230,15.0,35.0,21,0.00,,,0.00,16.000000,,2013-06-14 03:43:00,
2013-06-13 20:53:00,71.0,29.0,-100.00,SW,230,15.0,35.0,21,0.00,,,0.00,16.000000,,2013-06-14 03:53:00,
2013-06-13 21:01:00,71.0,29.0,-100.00,SW,230,15.0,35.0,21,0.00,,,0.00,16.000000,,2013-06-14 04:01:00,
2013-06-13 21:12:00,71.0,29.0,-100.00,SW,230,15.0,35.0,21,0.00,,,0.00,16.000000,,2013-06-14 04:12:00,
2013-06-13 21:43:00,70.0,29.0,-100.00,SW,223,16.0,28.0,22,0.00,,,0.00,0.000000,,2013-06-14 04:43:00,
2013-06-13 21:53:00,70.0,29.0,-100.00,SW,223,16.0,28.0,22,0.00,,,0.00,0.000000,,2013-06-14 04:53:00,
2013-06-13 22:43:00,69.0,30.0,-100.00,SW,221,16.0,31.0,23,0.00,,,0.00,0.000000,,2013-06-14 05:43:00,
2013-06-13 22:52:00,69.0,30.0,-100.00,SW,221,16.0,31.0,23,0.00,,,0.00,0.000000,,2013-06-14 05:52:00,
2013-06-13 23:02:00,69.0,30.0,-100.00,SW,221,16.0,31.0,23,0.00,,,0.00,0.000000,,2013-06-14 06:02:00,
2013-06-13 23:12:00,69.0,30.0,-100.00,SW,221,16.0,31.0,23,0.00,,,0.00,0.000000,,2013-06-14 06:12:00,
2013-06-13 23:43:00,69.0,32.0,-100.00,SW,221,13.0,26.0,25,0.00,,,0.00,0.000000,,2013-06-14 06:43:00,
2013-06-13 23:52:00,69.0,32.0,-100.00,SW,221,13.0,26.0,25,0.00,,,0.00,0.000000,,2013-06-14 06:52:00,